CST,Max TemperatureF,Mean TemperatureF,Min TemperatureF,Max Dew PointF,MeanDew PointF,Min DewpointF,Max Humidity, Mean Humidity, Min Humidity, Max Sea Level PressureIn, Mean Sea Level PressureIn, Min Sea Level PressureIn, Max VisibilityMiles, Mean VisibilityMiles, Min VisibilityMiles, Max Wind SpeedMPH, Mean Wind SpeedMPH, Max Gust SpeedMPH,PrecipitationIn, CloudCover, Events, WindDirDegrees
2013-2-1,23,10,-2,18,0,-9,86,69,57,30.43,30.32,30.13,10,10,7,18,11,23,0.00,4,Snow,239
2013-2-2,24,20,17,21,15,9,100,77,63,30.15,30.09,30.02,10,9,2,22,11,28,0.00,7,Snow,278
2013-2-3,28,24,19,23,16,12,100,73,51,30.19,30.06,29.92,10,10,4,30,10,40,0.00,4,Snow,245
2013-2-4,32,24,17,25,19,16,93,76,64,29.99,29.89,29.77,10,10,7,18,11,26,0.00,3,,327
2013-2-5,41,30,19,32,25,18,93,81,65,30.11,29.95,29.85,10,9,5,21,6,26,0.00,4,,258
2013-2-6,44,32,21,34,29,21,100,80,57,30.19,30.10,29.98,10,8,3,15,5,22,0.00,1,,155
2013-2-7,39,34,30,39,34,30,100,96,75,30.10,29.97,29.88,10,4,1,18,8,25,0.68,8,Rain,349
2013-2-8,30,29,28,30,26,25,100,88,80,30.36,30.30,30.11,10,9,3,16,9,23,0.00,8,,2
2013-2-9,35,30,26,30,27,25,93,87,75,30.34,30.19,29.97,10,10,10,15,10,22,0.00,6,,148
2013-2-10,55,44,33,48,36,25,100,83,44,29.96,29.62,29.39,10,7,2,25,14,40,0.51,7,Rain,174
2013-2-11,39,34,26,27,23,19,86,66,60,30.13,29.94,29.67,10,10,10,29,19,39,0.00,6,,277
2013-2-12,42,33,24,27,24,21,93,74,45,30.15,30.06,29.93,10,9,7,8,4,,0.03,2,,227
2013-2-13,48,38,28,30,27,23,86,64,43,29.92,29.81,29.73,10,10,7,14,7,16,0.00,1,,230
2013-2-14,44,38,33,30,28,25,75,65,53,30.09,29.90,29.73,10,10,10,22,11,29,0.00,5,,285
2013-2-15,33,27,21,25,13,10,74,56,38,30.28,30.23,30.10,10,10,10,18,13,25,0.00,1,,315
2013-2-16,32,24,15,16,12,7,80,63,44,30.26,30.20,30.15,10,10,10,15,8,22,0.00,1,,324
2013-2-17,42,30,19,27,18,10,80,59,39,30.16,30.03,29.81,10,10,10,20,10,29,0.00,0,,136
2013-2-18,57,40,23,45,30,12,93,71,48,29.87,29.67,29.52,10,9,1,26,15,33,0.55,4,Rain-Snow,220
2013-2-19,26,20,14,14,9,3,74,61,46,30.30,30.10,29.88,10,10,1,25,17,38,0.00,4,Snow,294
2013-2-20,23,14,6,12,5,-2,74,65,58,30.44,30.36,30.31,10,10,10,15,8,18,0.00,1,,1
2013-2-21,28,22,17,25,18,10,93,81,68,30.34,30.12,29.83,10,6,0,18,10,28,0.00,5,Snow,82
2013-2-22,30,28,24,28,22,16,93,74,64,30.01,29.88,29.75,10,8,2,14,8,22,0.01,8,Snow,239
2013-2-23,30,26,21,16,15,14,74,64,55,30.01,29.99,29.96,10,10,10,10,6,,0.07,3,,239
2013-2-24,39,27,15,21,18,12,93,68,45,30.10,30.06,30.00,10,9,4,10,3,,0.01,0,,140
2013-2-25,39,31,23,30,25,18,86,73,60,30.10,30.01,29.83,10,8,4,17,6,23,0.00,2,,64
2013-2-26,37,34,32,30,29,27,87,81,65,29.82,29.61,29.51,10,6,0,23,16,32,0.13,8,Snow,28
2013-2-27,33,32,30,28,28,27,93,85,81,29.87,29.76,29.66,10,4,1,17,12,20,0.01,8,Snow,313
2013-2-28,35,32,28,28,27,25,93,83,70,30.12,30.03,29.87,10,6,2,16,11,21,0.00,8,Snow,306